• Em Portugal
  • Lista de países
  • Para 7 dias
  • Temperatura da água
  • Mapas de satélite
  • Mapa do tempo
  • Widgets de tempo
  • user-avatar
    Iniciar Sessão

    Previsão horária em Tirana

    Hoje, 16 Dezembro, Sábado

    Tempo Temperatura Precipitação Vento Pressão Humidade
    00:00 +9°C° 0,4 mm 10 m/s 747 mmHg 87%
    01:00 +9°C° 0 mm 10 m/s 746 mmHg 88%
    02:00 +9°C° 0,1 mm 10 m/s 746 mmHg 88%
    03:00 +9°C° 0,1 mm 10 m/s 746 mmHg 87%
    04:00 +11°C° 0,1 mm 10 m/s 745 mmHg 87%
    05:00 +11°C° 0,4 mm 10 m/s 745 mmHg 87%
    06:00 +11°C° 0,4 mm 10 m/s 746 mmHg 87%
    07:00 +11°C° 0 mm 8 m/s 745 mmHg 90%
    08:00 +11°C° 1,1 mm 8 m/s 745 mmHg 89%
    09:00 +12°C° 1,1 mm 8 m/s 746 mmHg 88%
    10:00 +12°C° 1,1 mm 7 m/s 746 mmHg 87%
    11:00 +12°C° 2 mm 7 m/s 746 mmHg 88%
    12:00 +13°C° 2 mm 6 m/s 746 mmHg 88%
    13:00 +13°C° 2 mm 5 m/s 746 mmHg 89%
    14:00 +12°C° 2 mm 5 m/s 747 mmHg 91%
    15:00 +12°C° 2 mm 4 m/s 747 mmHg 93%
    16:00 +12°C° 2 mm 3 m/s 747 mmHg 94%
    17:00 +11°C° 1,2 mm 3 m/s 747 mmHg 94%
    18:00 +12°C° 1,2 mm 2 m/s 747 mmHg 94%
    19:00 +12°C° 1,2 mm 2 m/s 747 mmHg 95%
    20:00 +12°C° 0,6 mm 2 m/s 748 mmHg 94%
    21:00 +12°C° 0,6 mm 2 m/s 748 mmHg 94%
    22:00 +12°C° 0,6 mm 2 m/s 748 mmHg 94%
    23:00 +12°C° 0,6 mm 2 m/s 748 mmHg 94%

    Amanhã, 17 Dezembro, Domingo

    Tempo Temperatura Precipitação Vento Pressão Humidade
    00:00 +10°C° 0,6 mm 2 m/s 749 mmHg 94%
    01:00 +10°C° 0,6 mm 2 m/s 749 mmHg 94%
    02:00 +10°C° 0,7 mm 2 m/s 749 mmHg 93%
    03:00 +10°C° 0,7 mm 2 m/s 749 mmHg 93%
    04:00 +9°C° 0,7 mm 2 m/s 749 mmHg 93%
    05:00 +9°C° 0,6 mm 2 m/s 749 mmHg 92%
    06:00 +9°C° 0,6 mm 2 m/s 749 mmHg 91%
    07:00 +9°C° 0,6 mm 2 m/s 750 mmHg 90%
    08:00 +9°C° 0,3 mm 3 m/s 750 mmHg 85%
    09:00 +10°C° 0,3 mm 3 m/s 750 mmHg 79%
    10:00 +11°C° 0,3 mm 3 m/s 751 mmHg 74%
    11:00 +11°C° 0,3 mm 3 m/s 751 mmHg 73%
    12:00 +11°C° 0,3 mm 4 m/s 751 mmHg 71%
    13:00 +11°C° 0,3 mm 4 m/s 751 mmHg 70%
    14:00 +10°C° 0,3 mm 4 m/s 751 mmHg 74%
    15:00 +9°C° 0,3 mm 3 m/s 751 mmHg 79%
    16:00 +9°C° 0,3 mm 3 m/s 751 mmHg 83%
    17:00 +8°C° 0,2 mm 3 m/s 752 mmHg 85%
    18:00 +8°C° 0,2 mm 3 m/s 752 mmHg 87%
    19:00 +6°C° 0,2 mm 4 m/s 753 mmHg 89%
    20:00 +6°C° 0,5 mm 4 m/s 753 mmHg 87%
    21:00 +6°C° 0,5 mm 4 m/s 754 mmHg 85%
    22:00 +6°C° 0,5 mm 5 m/s 754 mmHg 83%
    23:00 +6°C° 0,7 mm 5 m/s 754 mmHg 83%

    Depois de amanhã, 18 Dezembro, Segunda-feira

    Tempo Temperatura Precipitação Vento Pressão Humidade
    00:00 +5°C° 0,7 mm 5 m/s 754 mmHg 82%
    01:00 +5°C° 0,7 mm 5 m/s 754 mmHg 82%
    02:00 +5°C° 0,6 mm 5 m/s 754 mmHg 84%
    03:00 +5°C° 0,6 mm 5 m/s 755 mmHg 87%
    04:00 +5°C° 0,6 mm 5 m/s 755 mmHg 89%
    05:00 +3°C° 0,6 mm 5 m/s 755 mmHg 88%
    06:00 +3°C° 0,6 mm 5 m/s 755 mmHg 87%
    07:00 +3°C° 0,6 mm 5 m/s 755 mmHg 85%
    08:00 +5°C° 0,4 mm 5 m/s 756 mmHg 83%
    09:00 +6°C° 0,4 mm 5 m/s 756 mmHg 81%
    10:00 +6°C° 0,4 mm 4 m/s 756 mmHg 80%
    11:00 +6°C° 0,4 mm 4 m/s 756 mmHg 81%
    12:00 +6°C° 0,4 mm 4 m/s 756 mmHg 82%
    13:00 +6°C° 0,4 mm 4 m/s 755 mmHg 83%
    14:00 +5°C° 0,3 mm 4 m/s 755 mmHg 84%
    15:00 +5°C° 0,3 mm 4 m/s 756 mmHg 85%
    16:00 +4°C° 0,3 mm 4 m/s 756 mmHg 87%
    17:00 +4°C° 0,1 mm 4 m/s 756 mmHg 87%
    18:00 +3°C° 0,1 mm 4 m/s 757 mmHg 88%
    19:00 +3°C° 0,1 mm 4 m/s 757 mmHg 89%
    20:00 +2°C° 0 mm 3 m/s 758 mmHg 89%
    21:00 +2°C° 0 mm 3 m/s 758 mmHg 89%
    22:00 +2°C° 0 mm 3 m/s 759 mmHg 89%
    23:00 +2°C° 0 mm 3 m/s 759 mmHg 88%

    19 Dezembro, Terça-feira

    Tempo Temperatura Precipitação Vento Pressão Humidade
    00:00 +1°C° 0 mm 3 m/s 759 mmHg 88%
    01:00 +1°C° 0 mm 3 m/s 759 mmHg 87%
    02:00 +1°C° 0 mm 3 m/s 760 mmHg 86%
    03:00 +1°C° 0 mm 3 m/s 760 mmHg 85%
    04:00 +1°C° 0 mm 3 m/s 760 mmHg 84%
    05:00 0°C° 0 mm 3 m/s 761 mmHg 83%
    06:00 0°C° 0 mm 3 m/s 761 mmHg 81%
    07:00 0°C° 0 mm 3 m/s 762 mmHg 80%
    08:00 +1°C° 0 mm 3 m/s 762 mmHg 75%
    09:00 +2°C° 0 mm 3 m/s 763 mmHg 70%
    10:00 +3°C° 0 mm 3 m/s 763 mmHg 65%
    11:00 +4°C° 0 mm 3 m/s 763 mmHg 63%
    12:00 +5°C° 0 mm 3 m/s 763 mmHg 60%
    13:00 +5°C° 0 mm 3 m/s 763 mmHg 58%
    14:00 +4°C° 0 mm 3 m/s 763 mmHg 62%
    15:00 +4°C° 0 mm 4 m/s 763 mmHg 65%
    16:00 +3°C° 0 mm 4 m/s 763 mmHg 69%
    17:00 +1°C° 0 mm 4 m/s 763 mmHg 71%
    18:00 +1°C° 0 mm 4 m/s 764 mmHg 72%
    19:00 0°C° 0 mm 4 m/s 764 mmHg 74%
    20:00 0°C° 0 mm 4 m/s 765 mmHg 74%
    21:00 -1°C° 0 mm 4 m/s 765 mmHg 75%
    22:00 -1°C° 0 mm 4 m/s 765 mmHg 75%
    23:00 -1°C° 0 mm 4 m/s 765 mmHg 75%

    20 Dezembro, Quarta-feira

    Tempo Temperatura Precipitação Vento Pressão Humidade
    00:00 -1°C° 0 mm 4 m/s 765 mmHg 75%
    01:00 0°C° 0 mm 3 m/s 765 mmHg 75%
    02:00 -1°C° 0 mm 3 m/s 765 mmHg 75%
    03:00 -1°C° 0 mm 3 m/s 765 mmHg 74%
    04:00 -1°C° 0 mm 3 m/s 765 mmHg 74%
    05:00 -1°C° 0 mm 3 m/s 765 mmHg 73%
    06:00 -1°C° 0 mm 3 m/s 765 mmHg 73%
    07:00 -1°C° 0 mm 3 m/s 765 mmHg 72%
    08:00 +2°C° 0 mm 2 m/s 765 mmHg 67%
    09:00 +3°C° 0 mm 2 m/s 765 mmHg 61%
    10:00 +5°C° 0 mm 2 m/s 765 mmHg 56%
    11:00 +5°C° 0 mm 2 m/s 764 mmHg 55%
    12:00 +5°C° 0 mm 2 m/s 764 mmHg 53%
    13:00 +6°C° 0 mm 2 m/s 763 mmHg 51%
    14:00 +5°C° 0 mm 2 m/s 763 mmHg 56%
    15:00 +4°C° 0 mm 2 m/s 763 mmHg 60%
    16:00 +3°C° 0 mm 2 m/s 763 mmHg 64%
    17:00 +3°C° 0 mm 2 m/s 763 mmHg 65%
    18:00 +2°C° 0 mm 2 m/s 764 mmHg 65%
    19:00 +1°C° 0 mm 2 m/s 764 mmHg 66%
    20:00 +1°C° 0 mm 2 m/s 764 mmHg 64%
    21:00 +1°C° 0 mm 2 m/s 764 mmHg 63%
    22:00 +1°C° 0 mm 2 m/s 764 mmHg 61%
    23:00 +1°C° 0 mm 2 m/s 764 mmHg 60%

    21 Dezembro, Quinta-feira

    Tempo Temperatura Precipitação Vento Pressão Humidade
    00:00 +1°C° 0 mm 2 m/s 763 mmHg 58%
    01:00 +1°C° 0 mm 2 m/s 763 mmHg 57%
    02:00 +1°C° 0 mm 2 m/s 763 mmHg 58%
    03:00 +2°C° 0 mm 2 m/s 763 mmHg 59%
    04:00 +2°C° 0 mm 2 m/s 763 mmHg 60%
    05:00 +2°C° 0 mm 2 m/s 763 mmHg 61%
    06:00 +2°C° 0 mm 2 m/s 764 mmHg 62%
    07:00 +2°C° 0 mm 2 m/s 764 mmHg 63%
    08:00 +4°C° 0 mm 2 m/s 764 mmHg 60%
    09:00 +6°C° 0 mm 1 m/s 764 mmHg 58%
    10:00 +8°C° 0 mm 1 m/s 765 mmHg 55%
    11:00 +9°C° 0 mm 1 m/s 764 mmHg 55%
    12:00 +9°C° 0 mm 1 m/s 764 mmHg 56%
    13:00 +10°C° 0 mm 1 m/s 764 mmHg 56%
    14:00 +9°C° 0 mm 1 m/s 764 mmHg 61%
    15:00 +8°C° 0 mm 1 m/s 764 mmHg 65%
    16:00 +7°C° 0 mm 1 m/s 764 mmHg 70%
    17:00 +6°C° 0 mm 1 m/s 765 mmHg 71%
    18:00 +6°C° 0 mm 1 m/s 765 mmHg 72%
    19:00 +4°C° 0 mm 2 m/s 765 mmHg 73%
    20:00 +5°C° 0 mm 1 m/s 765 mmHg 73%
    21:00 +5°C° 0 mm 1 m/s 765 mmHg 72%
    22:00 +6°C° 0 mm 1 m/s 765 mmHg 72%
    23:00 +6°C° 0 mm 1 m/s 765 mmHg 72%
    Mostrar mais